Regional Weather Roundup
Issued by NWS

Home | Current Version | Previous Version | Graphics & Text | Print | Product List | Glossary On
Versions: 1 2 3 4 5 6 7 8 9 10 11 12 13 14 15 16 17 18 19 20 21 22 23 24 25 26 27 28 29 30 31 32 33 34 35 36 37 38 39 40 41 42 43 44 45 46 47 48 49 50
907
ASUS45 KPSR 272210
RWRAZ

ARIZONA HOURLY REGIONAL WEATHER ROUNDUP
NATIONAL WEATHER SERVICE PHOENIX AZ
300 PM MST FRI MAY 27 2016

NOTE: FAIR INDICATES FEW OR NO CLOUDS BELOW 12,000 FEET WITH NO
SIGNIFICANT WEATHER AND/OR OBSTRUCTIONS TO VISIBILITY.

AZZ001>003-036-272300-
NORTHWEST ARIZONA

CITY           SKY/WX    TMP DP  RH WIND       PRES   REMARKS
BULLHEAD CITY  MOSUNNY   93  30  10 MISG      29.72F
KINGMAN        MOSUNNY   85  28  12 W17G23    29.88F
$$

AZZ004>008-015-016-018-272300-
NORTH CENTRAL ARIZONA

CITY           SKY/WX    TMP DP  RH WIND       PRES   REMARKS
GRAND CANYON   PTSUNNY   65  26  23 MISG      30.03S
WILLIAMS       PTSUNNY   64  25  22 VRB5G14   30.10F
PRESCOTT       PTSUNNY   73  25  16 VRB6G17   29.94F
FLAGSTAFF      PTSUNNY   62  25  24 VRB6      30.04F
PAYSON         MOSUNNY   73  25  16 VRB7G14   29.97F
PAGE           MOSUNNY   77  26  15 VRB6      29.86F
$$

AZZ009>014-017-272300-
NORTHEAST ARIZONA

CITY           SKY/WX    TMP DP  RH WIND       PRES   REMARKS
WINSLOW        MOSUNNY   75  28  17 VRB3G17   29.93F
SAINT JOHNS    MOSUNNY   73  22  14 NW15G23   29.94F
WINDOW ROCK    PTSUNNY   66  22  18 W16G23    29.97F
SHOW LOW       PTSUNNY   66  25  20 SW13      30.01F
$$

AZZ023-272300-
GREATER PHOENIX AREA

CITY           SKY/WX    TMP DP  RH WIND       PRES   REMARKS
PHOENIX        MOSUNNY   90  29  11 VRB7      29.75F
BUCKEYE        SUNNY     90  28  11 S10       29.78F
GLENDALE       MOSUNNY   91  30  11 W7G17     29.78
LUKE AFB       SUNNY     90  32  12 W15       29.74F
DEER VALLEY    SUNNY     89  29  11 SW10G16   29.77F
SCOTTSDALE     SUNNY     88  27  11 VRB3      29.78F
MESA-GATEWAY   MOSUNNY   88  30  12 CALM      29.79F
CHANDLER       SUNNY     90  28  11 SW12      29.78F
$$

AZZ027-028-272300-
SOUTHWEST MARICOPA COUNTY AND PINAL COUNTY

CITY           SKY/WX    TMP DP  RH WIND       PRES   REMARKS
CASA GRANDE    SUNNY     88  30  12 S9        29.81F
GILA BEND      FAIR      91  29  11 VRB2      29.75F
$$

AZZ503-504-507>509-272300-
SOUTHEAST ARIZONA

CITY           SKY/WX    TMP DP  RH WIND       PRES   REMARKS
TUCSON         SUNNY     85  22  10 W6        29.86F
DAVIS-MONTHAN  SUNNY     84  20   9 SW1       29.84F
RYAN FIELD     SUNNY     84  23  10 E3        29.86F
NOGALES        SUNNY     84  17   8 SW10G20   29.90F
SIERRA VISTA   SUNNY     80  20  11 SW3       29.94F
DOUGLAS        SUNNY     83  14   7 W13G23    29.90F
SAFFORD        SUNNY     86  24  10 MISG      29.82F
$$

AZZ020-021-025-026-031-272300-
SOUTHWEST ARIZONA

CITY           SKY/WX    TMP DP  RH WIND       PRES   REMARKS
YUMA           SUNNY     92  37  14 SW10      29.75F
$$

CAZ031-033-041-043-047-048-061-272300-
SOUTHERN CALIFORNIA

CITY           SKY/WX    TMP DP  RH WIND       PRES   REMARKS
DOWNTOWN L.A.  SUNNY     70  55  59 W8        29.85F
L.A. AIRPORT   MOSUNNY   68  55  63 W14       29.87F
SAN DIEGO      MOSUNNY   69  55  60 W7        29.89F
BURBANK        SUNNY     76  55  48 SE9       29.84F
ONTARIO        MOSUNNY   80  51  36 W14       29.83F
RIVERSIDE      SUNNY     80  50  34 W9G16     29.83F
PALM SPRINGS     N/A     95  36  12 NE7         N/A
EL CENTRO NAS  MOSUNNY   92  31  11 MISG      29.74F
IMPERIAL       SUNNY     94  30  10 VRB5      29.73F
BLYTHE         SUNNY     93  37  14 S8        29.73F
NEEDLES        SUNNY     95  31  10 VRB5      29.72F
$$

NVZ020-UTZ003-272300-
SOUTHERN NEVADA-UTAH

CITY           SKY/WX    TMP DP  RH WIND       PRES   REMARKS
LAS VEGAS      MOSUNNY   88  29  12 W7        29.75F
SALT LAKE CITY PTSUNNY   70  33  25 W12       29.91F
$$

NMZ009-TXZ055-272300-
NEW MEXICO-WEST TEXAS

CITY           SKY/WX    TMP DP  RH WIND       PRES   REMARKS
ALBUQUERQUE    PTSUNNY   75  22  13 W13G28    29.86F
EL PASO        SUNNY     83  18   9 S8        29.85F
$$


........................KEY........................
SKY/WX - SKY CONDITION/WEATHER
TMP    - TEMPERATURE IN FAHRENHEIT
DP     - DEW POINT IN FAHRENHEIT
RH     - RELATIVE HUMIDITY IN PERCENT
WIND   - DIRECTION AND SPEED IN MILES PER HOUR (MPH)
VRB    - VARIABLE WIND DIRECTION
PRES   - MEAN SEA LEVEL PRESSURE IN INCHES OF MERCURY
         F - FALLING PRESSURE   R - RISING PRESSURE
         S - STEADY PRESSURE
VSB    - VISIBILITY IN MILES
HX     - HEAT INDEX IN FAHRENHEIT
WCI    - WIND CHILL INDEX IN FAHRENHEIT
TC     - TEMPERATURE IN CELSIUS WHICH IS ALSO KNOWN AS
         TEMPERATURE IN CENTIGRADE
AFB    - AIR FORCE BASE
         LUKE AFB IS LUKE AIR FORCE BASE
         DAVIS-MONTHAN IS DAVIS-MONTHAN AIR FORCE BASE
NAS    - NAVAL AIR STATION
         EL CENTRO NAS IS EL CENTRO NAVAL AIR STATION
N/A    - NOT AVAILABLE





USA.gov is the U.S. government's official web portal to all federal, state and local government web resources and services.